Terminal Aerodrome Forecast
Issued by NWS North Platte, NE

Home | Current Version | Previous Version | Graphics & Text | Print | Product List | Glossary On
Versions: 1 2 3 4 5 6 7 8 9 10 11 12 13 14 15 16 17 18
000
FTUS43 KLBF 261100
TAFVTN
TAF
KVTN 261135Z 2612/2712 13006KT 5SM BR OVC006
     FM261500 34010KT P6SM SCT025 BKN050
     FM261700 35015G21KT P6SM SCT050
     FM270000 34009KT P6SM SKC=

USA.gov is the U.S. government's official web portal to all federal, state and local government web resources and services.